Content
SEND FEEDBACK

Daily
Averages
Monthly
Summary
United States of America

DAVENPORT, WASHINGTON


Home > North America > United States > Washington
Elevation: 2447 feet     Latitude: 47 39N     Longitude: 118 09W

WEATHER
 
SELECT A DAY
Number of Records: 257,825;   Date Range: 1/1/95 - 12/17/14
 
SHARE

PRINT THIS DATA

[ ← Previous Day ]
WEATHER ALMANAC - JANUARY 23, 2013
[ Next Day → ]
[ °C ]   °F
Weather ElementAverageHighLow
Temperature27 °F32 °F (7:04 pm)20.3 °F (7:58 am)
Dewpoint27 °F32 °F (7:04 pm)20.3 °F (7:58 am)
Humidity100 %100 % (1:55 am)100 % (1:55 am)
Barometer29.98 in30.21 in (1:55 am)29.87 in (6:18 pm)
Wind Speed7.6 mph21.9 mph (9:31 pm)
Weather ElementAverage
Visibility8.5 mi
Wind DirectionE (86.7 °)

Weather ElementTotal
Precipitation---
Heating Degree Days38.9 (Base 65)
Averaged from 73 records on January 23, 2013
WEATHER CONDITIONS BREAKOUT
WIND DIRECTION BREAKOUT
WEATHER BY HOUR - JANUARY 23, 2013
[ °C ]   °F
Local TimeTemperatureDewpointHumidityBarometerVisibilityWind DirectionWind SpeedGust SpeedPrecipitationEventsConditions
1:55 AM20.8 °F20.8 °F100 %30.21 in10.0 miNorth (10°)3.5 mphMostly Cloudy
2:29 AM21.2 °F21.2 °F100 %30.19 in10.0 miNNE (30°)4.6 mphOvercast
2:55 AM21.7 °F21.7 °F100 %30.17 in10.0 miNNE (30°)5.8 mphMostly Cloudy
3:58 AM23.0 °F23.0 °F100 %30.19 in10.0 miNorth (10°)4.6 mphOvercast
4:58 AM22.1 °F22.1 °F100 %30.15 in10.0 miNNE (30°)3.5 mphOvercast
5:58 AM21.7 °F21.7 °F100 %30.15 in10.0 miNNE (20°)4.6 mphOvercast
6:58 AM20.7 °F20.7 °F100 %30.13 in10.0 miNNE (20°)4.6 mphMostly Cloudy
7:58 AM20.3 °F20.3 °F100 %30.12 in10.0 miNE (40°)4.6 mphPartly Cloudy
8:27 AM23.0 °F23.0 °F100 %30.00 in10.0 miNNE (30°)5.8 mphMostly Cloudy
8:32 AM23.0 °F23.0 °F100 %30.01 in10.0 miNE (40°)5.8 mphMostly Cloudy
8:58 AM22.5 °F22.5 °F100 %30.11 in10.0 miNNE (20°)4.6 mph0.00 inClear
9:40 AM23.0 °F23.0 °F100 %30.00 in10.0 miNE (40°)4.6 mphClear
9:52 AM23.0 °F23.0 °F100 %30.00 in10.0 miNNE (30°)4.6 mphClear
9:58 AM23.7 °F23.7 °F100 %30.11 in10.0 miNNE (30°)4.6 mph0.00 inClear
10:31 AM24.8 °F24.8 °F100 %29.99 in10.0 miNNE (30°)4.6 mphClear
10:37 AM24.8 °F24.8 °F100 %29.99 in10.0 miNE (40°)5.8 mphClear
10:58 AM25.3 °F25.3 °F100 %30.09 in10.0 miNNE (30°)10.4 mph0.00 inOvercast
11:06 AM26.6 °F26.6 °F100 %29.98 in10.0 miNE (40°)11.5 mphOvercast
11:18 AM26.6 °F26.6 °F100 %29.98 in10.0 miNE (40°)10.4 mphOvercast
11:36 AM26.6 °F26.6 °F100 %29.96 in10.0 miNE (40°)12.7 mphOvercast
11:46 AM26.6 °F26.6 °F100 %29.97 in10.0 miNNE (30°)9.2 mphOvercast
11:58 AM26.4 °F26.4 °F100 %30.06 in10.0 miNNE (30°)10.4 mph0.00 inOvercast
12:58 PM27.3 °F27.3 °F100 %30.03 in10.0 miNorth (360°)6.9 mphOvercast
1:56 PM28.4 °F28.4 °F100 %29.93 in10.0 miNNW (330°)2.3 mphScattered Clouds
1:59 PM27.7 °F27.7 °F100 %30.04 in10.0 miNNW (330°)1.2 mphScattered Clouds
2:14 PM28.4 °F28.4 °F100 %29.94 in10.0 miWest (280°)1.2 mphClear
2:48 PM28.4 °F28.4 °F100 %29.93 in10.0 miESE (120°)2.3 mphSnowLight Snow
2:58 PM28.2 °F28.2 °F100 %30.02 in5.0 miNNW (340°)3.5 mph0.00 inSnowLight Snow
3:03 PM28.4 °F28.4 °F100 %29.92 in1.5 miNorth (360°)3.5 mphSnowLight Snow
3:08 PM28.4 °F28.4 °F100 %29.91 in1.8 miNNE (20°)5.8 mphRainLight Freezing Rain
3:13 PM28.4 °F28.4 °F100 %29.90 in3.0 miNNE (20°)8.1 mphRainLight Freezing Rain
3:15 PM28.4 °F28.4 °F100 %29.90 in5.0 miNNE (20°)8.1 mphRainLight Freezing Rain
3:20 PM28.4 °F28.4 °F100 %29.91 in6.0 miNorth (10°)6.9 mphRainLight Freezing Rain
3:43 PM30.2 °F30.2 °F100 %29.92 in8.0 miNNE (20°)3.5 mphRainLight Freezing Rain
3:44 PM30.2 °F30.2 °F100 %29.93 in8.0 miNNE (30°)3.5 mphSnowLight Snow
3:54 PM28.4 °F28.4 °F100 %29.94 in2.0 miNE (40°)2.3 mphSnowLight Snow
3:58 PM28.4 °F28.4 °F100 %30.03 in1.8 miENE (60°)2.3 mph0.00 inSnowLight Snow
4:03 PM28.4 °F28.4 °F100 %29.94 in1.0 miNE (50°)3.5 mphSnowLight Snow
4:28 PM28.4 °F28.4 °F100 %29.91 in1.2 miNE (50°)9.2 mphSnowLight Snow
4:33 PM28.4 °F28.4 °F100 %29.91 in2.0 miNE (50°)6.9 mphSnowLight Snow
4:38 PM28.4 °F28.4 °F100 %29.91 in5.0 miENE (60°)9.2 mphSnowLight Snow
4:39 PM28.4 °F28.4 °F100 %29.91 in6.0 miENE (60°)9.2 mphRainLight Freezing Rain
4:58 PM29.1 °F29.1 °F100 %30.01 in10.0 miNE (40°)10.4 mph0.00 inRainLight Freezing Rain
5:08 PM28.4 °F28.4 °F100 %29.92 in10.0 miENE (70°)10.4 mphRainLight Freezing Rain
5:14 PM28.4 °F28.4 °F100 %29.92 in10.0 miENE (60°)8.1 mphRainLight Freezing Rain
5:19 PM28.4 °F28.4 °F100 %29.92 in10.0 miENE (60°)8.1 mphRainLight Freezing Rain
5:20 PM28.4 °F28.4 °F100 %29.92 in10.0 miNE (50°)6.9 mphRainLight Freezing Rain
5:25 PM28.4 °F28.4 °F100 %29.91 in10.0 miNE (50°)8.1 mphRainLight Freezing Rain
5:26 PM28.4 °F28.4 °F100 %29.91 in10.0 miNE (50°)8.1 mphRainLight Freezing Rain
5:31 PM28.4 °F28.4 °F100 %29.91 in10.0 miNE (40°)8.1 mphRainLight Freezing Rain
5:33 PM30.2 °F30.2 °F100 %29.91 in10.0 miNE (40°)8.1 mphMostly Cloudy
5:38 PM30.2 °F30.2 °F100 %29.90 in10.0 miNE (40°)9.2 mphMostly Cloudy
5:42 PM30.2 °F30.2 °F100 %29.90 in10.0 miNNE (30°)8.1 mphRainLight Freezing Rain
5:58 PM29.5 °F29.5 °F100 %29.98 in10.0 miNE (40°)9.2 mph0.00 inRainLight Freezing Rain
6:03 PM30.2 °F30.2 °F100 %29.89 in10.0 miNE (40°)9.2 mphRainLight Freezing Rain
6:13 PM30.2 °F30.2 °F100 %29.88 in9.0 miNE (40°)9.2 mphRainLight Freezing Rain
6:18 PM30.2 °F30.2 °F100 %29.87 in10.0 miNE (40°)9.2 mphRainLight Freezing Rain
6:23 PM30.2 °F30.2 °F100 %29.87 in10.0 miNE (40°)8.1 mphRainLight Freezing Rain
6:36 PM30.2 °F30.2 °F100 %29.88 in10.0 miNE (40°)8.1 mphLight Drizzle
6:52 PM30.2 °F30.2 °F100 %29.88 in10.0 miNE (50°)6.9 mphMostly Cloudy
6:58 PM30.2 °F30.2 °F100 %29.97 in10.0 miNE (50°)4.6 mph0.00 inRainLight Freezing Rain
7:04 PM32.0 °F32.0 °F100 %29.88 in10.0 miNE (40°)6.9 mphRainLight Freezing Rain
7:58 PM30.9 °F30.9 °F100 %29.97 in10.0 miEast (90°)4.6 mph0.00 inRainLight Freezing Rain
8:58 PM31.6 °F31.6 °F100 %30.00 in6.0 miSSW (200°)11.5 mph0.00 inRainLight Freezing Rain
9:00 PM32.0 °F32.0 °F100 %30.01 in9.0 miSSW (200°)13.8 mphRainLight Freezing Rain
9:31 PM26.6 °F26.6 °F100 %29.95 in10.0 miSSW (200°)21.9 mphRainLight Freezing Rain
9:35 PM26.6 °F26.6 °F100 %29.95 in10.0 miSSW (210°)18.4 mphRainLight Freezing Rain
9:38 PM26.6 °F26.6 °F100 %29.95 in10.0 miSSW (210°)18.4 mphLight Drizzle
9:58 PM24.4 °F24.4 °F100 %30.06 in6.0 miSW (220°)18.4 mph0.00 inRainLight Freezing Rain
10:41 PM23.0 °F23.0 °F100 %30.08 in8.0 miSSW (200°)9.2 mphLight Freezing Drizzle
10:58 PM22.8 °F22.8 °F100 %30.08 in8.0 miSSW (210°)10.4 mph0.00 inLight Freezing Drizzle
11:14 PM23.0 °F23.0 °F100 %30.10 in8.0 miSSW (200°)11.5 mphOvercast
11:58 PM22.3 °F22.3 °F100 %30.12 in9.0 miSSW (210°)11.5 mph0.00 inOvercast
Hourly data recorded from KSKA, located miles away from Davenport, Washington







STORIES FROM OUR PARTNERS